Simultaneous Nadir Overpasses (SNOs) Predictions

Prediction of SNOs over PacNW region [( 10.00, 139.50) to ( 22.70, 165.60)] between AQUA and NPP Satellites:

Table of predicted SNOs over PacNW region for the next 30.0 days since TLE Epoch: 5/29/2020
Index Date (AQUA) Time (AQUA) AQUA Lat,Lon Date (NPP) Time (NPP) NPP Lat,Lon Distance(km) Time Diff (sec)
1 06/01/2020 15:10:00 22.61, 159.85 06/01/2020 15:10:40 23.20, 157.29 270.35 40
2 06/09/2020 15:59:27 22.59, 147.48 06/09/2020 16:01:22 23.22, 144.63 301.06 115
3 06/17/2020 15:09:59 22.64, 159.85 06/17/2020 15:10:35 23.17, 157.32 266.70 36
4 06/25/2020 15:59:24 22.63, 147.50 06/25/2020 16:01:15 23.26, 144.67 297.68 111




NCC Satellite Simultaneous Nadir Overpasses (SNOs) Prediction Service
